HULIANWAN GAOGUI-02 (H*)

Last updated on Thu Oct 30 2025 00:02:52 GMT+0000 (Coordinated Universal Time)

1 60327U 24135A 25302.28734340 -.00000163 00000+0 00000+0 0 9995 2 60327 0.0360 77.0583 0002817 186.7130 30.7152 1.00271809 5183
UTC large
Height (km)
Speed (km/s)
/
Latitude / Longitude
Inclination (degrees)
Orbital Period (minutes)
Azimuth
Elevation
Range (km)
Doppler Factor

Next 0 passes for location: London (51.5072 / 0.1276)

Sorry there are no passes over London.